KLM312 LKPR-EBCI

Flight info

Callsign KLM312
Flight time 1h 15m
Altitude 34000
Route BALTU4B/30 BALTU DCT DONAD DCT RAPET Z93 KODUK DCT MARZA DCT TEKTU DCT TESGA DCT UMUPU T880 ADMUM/N0406F240 T880 BATTY
Aircraft B737/M-SDE2E3FGHIRWXY/LB1

Departure

Time 2026-05-04 08:47
Airport Václav Havel Airport Prague (LKPR)

Arrival

Time 2026-05-04 10:02
Airport Brussels South Charleroi Airport (EBCI)
Time Latitude Longitude Altitude Speed Heading
2026-05-04 08:14 50.10621 14.26221 1183 ft 0 kts 26°
2026-05-04 08:35 50.10547 14.26167 1186 ft 1 kts 310°
2026-05-04 08:38 50.10548 14.26165 1186 ft 1 kts 310°
2026-05-04 08:38 50.10560 14.26142 1186 ft 5 kts 308°
2026-05-04 08:40 50.10372 14.26245 1192 ft 8 kts 126°
2026-05-04 08:40 50.10334 14.26323 1194 ft 11 kts 127°
2026-05-04 08:40 50.10274 14.26448 1195 ft 17 kts 127°
2026-05-04 08:41 50.10197 14.26604 1200 ft 19 kts 127°
2026-05-04 08:41 50.10121 14.26763 1204 ft 18 kts 127°
2026-05-04 08:41 50.10047 14.26915 1208 ft 17 kts 127°
2026-05-04 08:41 50.09973 14.27069 1208 ft 18 kts 127°
2026-05-04 08:42 50.09899 14.27221 1210 ft 17 kts 127°
2026-05-04 08:42 50.09818 14.27367 1211 ft 18 kts 135°
2026-05-04 08:42 50.09731 14.27500 1213 ft 17 kts 135°
2026-05-04 08:42 50.09648 14.27630 1218 ft 17 kts 135°
2026-05-04 08:43 50.09567 14.27753 1223 ft 16 kts 135°
2026-05-04 08:43 50.09490 14.27872 1228 ft 15 kts 135°
2026-05-04 08:43 50.09415 14.27985 1232 ft 15 kts 135°
2026-05-04 08:43 50.09344 14.28095 1245 ft 14 kts 135°
2026-05-04 08:44 50.09276 14.28199 1246 ft 13 kts 135°
2026-05-04 08:44 50.09216 14.28276 1242 ft 6 kts 155°
2026-05-04 08:46 50.09184 14.27878 1239 ft 44 kts 307°
2026-05-04 08:46 50.09520 14.27185 1214 ft 114 kts 307°
2026-05-04 08:46 50.10113 14.25962 1212 ft 165 kts 308°
2026-05-04 08:46 50.10850 14.24443 1674 ft 179 kts 308°
2026-05-04 08:47 50.11580 14.22918 2571 ft 168 kts 308°
2026-05-04 08:47 50.12270 14.21491 3330 ft 167 kts 308°
2026-05-04 08:47 50.13022 14.19933 3621 ft 195 kts 307°
2026-05-04 08:47 50.13886 14.18143 3886 ft 218 kts 306°
2026-05-04 08:48 50.14847 14.16151 4172 ft 238 kts 306°
2026-05-04 08:48 50.15880 14.14003 4577 ft 260 kts 305°
2026-05-04 08:48 50.16979 14.11716 5335 ft 266 kts 304°
2026-05-04 08:48 50.18051 14.09493 6230 ft 267 kts 304°
2026-05-04 08:49 50.19173 14.07159 7117 ft 271 kts 304°
2026-05-04 08:50 50.21209 13.89567 11005 ft 334 kts 266°
2026-05-04 08:50 50.21159 13.85876 11598 ft 344 kts 267°
2026-05-04 08:51 50.21116 13.82123 12435 ft 347 kts 267°
2026-05-04 08:51 50.21077 13.78331 13229 ft 352 kts 267°
2026-05-04 08:51 50.21039 13.74489 14048 ft 356 kts 267°
2026-05-04 08:51 50.21000 13.70601 14842 ft 360 kts 267°
2026-05-04 08:52 50.20962 13.66669 15649 ft 364 kts 267°
2026-05-04 08:52 50.20925 13.62696 16470 ft 368 kts 267°
2026-05-04 08:52 50.20887 13.58683 17266 ft 371 kts 267°
2026-05-04 08:52 50.20846 13.54628 18051 ft 376 kts 267°
2026-05-04 08:53 50.20800 13.50524 18753 ft 381 kts 267°
2026-05-04 08:54 50.20455 13.20680 23270 ft 407 kts 267°
2026-05-04 08:55 50.20396 13.16244 23829 ft 411 kts 267°
2026-05-04 08:55 50.20335 13.11776 24353 ft 413 kts 267°
2026-05-04 08:55 50.20273 13.07321 24881 ft 415 kts 267°
2026-05-04 08:55 50.20208 13.02815 25375 ft 418 kts 267°
2026-05-04 08:57 50.19690 12.70425 28605 ft 435 kts 266°
2026-05-04 09:01 50.18919 12.05815 34040 ft 420 kts 268°
2026-05-04 09:01 50.18879 11.96733 34066 ft 415 kts 268°
2026-05-04 09:02 50.18833 11.87742 34047 ft 414 kts 267°
2026-05-04 09:02 50.18806 11.78761 34049 ft 414 kts 269°
2026-05-04 09:03 50.18937 11.69833 34048 ft 414 kts 269°
2026-05-04 09:03 50.19090 11.60784 34041 ft 415 kts 269°
2026-05-04 09:04 50.19217 11.51874 34052 ft 415 kts 269°
2026-05-04 09:04 50.19329 11.42771 34038 ft 415 kts 269°
2026-05-04 09:05 50.19430 11.33859 34031 ft 415 kts 269°
2026-05-04 09:05 50.19525 11.24865 34029 ft 414 kts 269°
2026-05-04 09:06 50.19614 11.15881 34026 ft 414 kts 269°
2026-05-04 09:08 50.18650 10.80215 34033 ft 410 kts 260°
2026-05-04 09:08 50.17872 10.71401 34028 ft 410 kts 260°
2026-05-04 09:09 50.17110 10.62599 34025 ft 410 kts 261°
2026-05-04 09:09 50.16351 10.53837 34032 ft 410 kts 260°
2026-05-04 09:10 50.15578 10.44997 34016 ft 410 kts 260°
2026-05-04 09:10 50.14805 10.36234 34025 ft 409 kts 260°
2026-05-04 09:11 50.14423 10.27336 34022 ft 412 kts 271°
2026-05-04 09:11 50.15494 10.18532 34029 ft 417 kts 282°
2026-05-04 09:12 50.17120 10.09852 34037 ft 417 kts 282°
2026-05-04 09:14 50.23488 9.74975 34043 ft 418 kts 281°
2026-05-04 09:14 50.25051 9.66232 34039 ft 418 kts 282°
2026-05-04 09:15 50.26605 9.57532 34032 ft 418 kts 281°
2026-05-04 09:15 50.28156 9.48760 34031 ft 418 kts 281°
2026-05-04 09:17 50.35065 9.09450 34026 ft 417 kts 283°
2026-05-04 09:18 50.36818 9.00753 34025 ft 417 kts 284°
2026-05-04 09:18 50.38573 8.92075 34027 ft 417 kts 283°
2026-05-04 09:19 50.40293 8.83404 34020 ft 416 kts 283°
2026-05-04 09:19 50.41987 8.74774 34025 ft 416 kts 283°
2026-05-04 09:20 50.43698 8.66023 34014 ft 416 kts 283°
2026-05-04 09:20 50.45082 8.57274 34023 ft 412 kts 276°
2026-05-04 09:21 50.45942 8.48386 34011 ft 411 kts 275°
2026-05-04 09:21 50.46771 8.39495 34007 ft 412 kts 275°
2026-05-04 09:22 50.47621 8.30665 34017 ft 412 kts 275°
2026-05-04 09:22 50.48490 8.21761 34011 ft 412 kts 275°
2026-05-04 09:23 50.49356 8.12861 34007 ft 412 kts 275°
2026-05-04 09:23 50.50216 8.03963 34006 ft 412 kts 275°
2026-05-04 09:25 50.53178 7.72703 31423 ft 410 kts 274°
2026-05-04 09:25 50.53590 7.68288 30849 ft 406 kts 274°
2026-05-04 09:26 50.53994 7.63930 30299 ft 402 kts 274°
2026-05-04 09:26 50.54393 7.59598 29687 ft 398 kts 274°
2026-05-04 09:26 50.54786 7.55333 29096 ft 393 kts 274°
2026-05-04 09:26 50.55175 7.51094 28529 ft 388 kts 274°
2026-05-04 09:27 50.55555 7.46926 27965 ft 383 kts 274°
2026-05-04 09:27 50.55903 7.42800 27436 ft 378 kts 270°
2026-05-04 09:27 50.55993 7.38702 26850 ft 372 kts 266°
2026-05-04 09:27 50.56010 7.34653 26310 ft 370 kts 266°
2026-05-04 09:28 50.56020 7.30623 25761 ft 367 kts 266°
2026-05-04 09:28 50.56039 7.26623 25225 ft 364 kts 266°
2026-05-04 09:28 50.56064 7.22651 24692 ft 362 kts 266°
2026-05-04 09:28 50.56091 7.18708 24228 ft 361 kts 266°
2026-05-04 09:29 50.56086 7.14786 24111 ft 360 kts 265°
2026-05-04 09:29 50.55995 7.10905 24039 ft 369 kts 264°
2026-05-04 09:29 50.55884 7.07045 24002 ft 374 kts 264°
2026-05-04 09:29 50.55777 7.02941 23999 ft 376 kts 264°
2026-05-04 09:30 50.55677 6.98837 23986 ft 375 kts 264°
2026-05-04 09:30 50.55580 6.94738 23995 ft 376 kts 264°
2026-05-04 09:30 50.55476 6.90611 23992 ft 378 kts 264°
2026-05-04 09:30 50.55368 6.86482 23988 ft 379 kts 264°
2026-05-04 09:31 50.55258 6.82336 23987 ft 379 kts 264°
2026-05-04 09:31 50.55148 6.78192 23986 ft 379 kts 264°
2026-05-04 09:31 50.55036 6.74057 23985 ft 379 kts 264°
2026-05-04 09:31 50.54965 6.71314 23986 ft 379 kts 265°
2026-05-04 09:32 50.55087 6.67152 23974 ft 383 kts 274°
2026-05-04 09:32 50.55559 6.63042 23979 ft 377 kts 276°
2026-05-04 09:34 50.58586 6.38805 23873 ft 274 kts 274°
2026-05-04 09:34 50.58934 6.35876 23615 ft 271 kts 274°
2026-05-04 09:34 50.59279 6.32954 23181 ft 273 kts 274°
2026-05-04 09:34 50.59631 6.29983 22645 ft 278 kts 275°
2026-05-04 09:35 50.59988 6.26968 22065 ft 284 kts 275°
2026-05-04 09:35 50.60353 6.23871 21413 ft 292 kts 275°
2026-05-04 09:35 50.60730 6.20678 21068 ft 293 kts 275°
2026-05-04 09:35 50.61108 6.17473 20882 ft 309 kts 276°
2026-05-04 09:37 50.64290 5.90209 19311 ft 373 kts 277°
2026-05-04 09:37 50.64755 5.86204 19080 ft 372 kts 278°
2026-05-04 09:38 50.65600 5.82334 18828 ft 376 kts 294°
2026-05-04 09:38 50.66790 5.78674 18609 ft 375 kts 295°
2026-05-04 09:38 50.67997 5.75038 18369 ft 374 kts 295°
2026-05-04 09:38 50.69187 5.71447 18112 ft 372 kts 295°
2026-05-04 09:39 50.70376 5.67826 17863 ft 371 kts 295°
2026-05-04 09:39 50.71551 5.64209 17619 ft 368 kts 294°
2026-05-04 09:39 50.72707 5.60623 17400 ft 366 kts 294°
2026-05-04 09:39 50.73854 5.57049 17172 ft 364 kts 295°
2026-05-04 09:40 50.74993 5.53485 16951 ft 362 kts 294°
2026-05-04 09:40 50.76120 5.49947 16721 ft 359 kts 295°
2026-05-04 09:40 50.77237 5.46439 16490 ft 356 kts 294°
2026-05-04 09:40 50.78343 5.42964 16264 ft 354 kts 294°
2026-05-04 09:41 50.79447 5.39491 16033 ft 352 kts 294°
2026-05-04 09:42 50.87004 5.15569 14509 ft 347 kts 294°
2026-05-04 09:43 50.87799 5.11951 14255 ft 342 kts 276°
2026-05-04 09:43 50.88007 5.08268 14075 ft 339 kts 272°
2026-05-04 09:43 50.88149 5.04551 13852 ft 339 kts 271°
2026-05-04 09:43 50.88285 5.00835 13618 ft 338 kts 271°
2026-05-04 09:44 50.88427 4.97130 13387 ft 337 kts 271°
2026-05-04 09:44 50.88574 4.93431 13167 ft 335 kts 272°
2026-05-04 09:44 50.88727 4.89750 12950 ft 334 kts 272°
2026-05-04 09:46 50.89804 4.64316 11525 ft 327 kts 272°
2026-05-04 09:46 50.89952 4.60729 11319 ft 326 kts 272°
2026-05-04 09:46 50.90012 4.57148 11097 ft 325 kts 262°
2026-05-04 09:47 50.89323 4.53783 10904 ft 321 kts 240°
2026-05-04 09:47 50.87947 4.51025 10700 ft 320 kts 221°
2026-05-04 09:49 50.76835 4.37895 9419 ft 263 kts 217°
2026-05-04 09:49 50.75372 4.36165 9252 ft 264 kts 217°
2026-05-04 09:49 50.73892 4.34416 9090 ft 267 kts 217°
2026-05-04 09:51 50.63903 4.33597 8061 ft 272 kts 152°
2026-05-04 09:51 50.62243 4.35031 7868 ft 273 kts 152°
2026-05-04 09:51 50.60599 4.36439 7715 ft 272 kts 153°
2026-05-04 09:51 50.58929 4.37860 7534 ft 270 kts 153°
2026-05-04 09:52 50.57292 4.39245 7357 ft 265 kts 153°
2026-05-04 09:52 50.55677 4.40606 7194 ft 263 kts 153°
2026-05-04 09:52 50.54057 4.41968 7039 ft 263 kts 153°
2026-05-04 09:52 50.52438 4.43324 6870 ft 264 kts 153°
2026-05-04 09:53 50.50814 4.44681 6713 ft 265 kts 153°
2026-05-04 09:53 50.49184 4.46041 6540 ft 266 kts 153°
2026-05-04 09:53 50.47584 4.47487 6359 ft 267 kts 142°
2026-05-04 09:53 50.46491 4.49812 6183 ft 267 kts 112°
2026-05-04 09:54 50.45998 4.52617 6031 ft 267 kts 102°
2026-05-04 09:54 50.45646 4.55387 5856 ft 267 kts 102°
2026-05-04 09:54 50.45305 4.58088 5688 ft 266 kts 102°
2026-05-04 09:54 50.44934 4.60918 5513 ft 265 kts 102°
2026-05-04 09:55 50.44554 4.63746 5342 ft 264 kts 103°
2026-05-04 09:55 50.44171 4.66551 5182 ft 262 kts 103°
2026-05-04 09:55 50.43979 4.69372 4976 ft 263 kts 82°
2026-05-04 09:55 50.44541 4.72073 4857 ft 260 kts 66°
2026-05-04 09:56 50.45294 4.74655 4669 ft 260 kts 66°
2026-05-04 09:56 50.46128 4.77156 4488 ft 258 kts 52°
2026-05-04 09:56 50.47505 4.78862 4316 ft 251 kts 22°
2026-05-04 09:56 50.49187 4.79324 4165 ft 246 kts 356°
2026-05-04 09:57 50.50755 4.78752 4033 ft 245 kts 338°
2026-05-04 09:57 50.52320 4.77674 3884 ft 246 kts 332°
2026-05-04 09:57 50.53605 4.75943 3684 ft 245 kts 298°
2026-05-04 09:57 50.53955 4.73445 3538 ft 232 kts 259°
2026-05-04 09:58 50.53457 4.71078 3419 ft 221 kts 246°
2026-05-04 09:58 50.52863 4.68924 3267 ft 214 kts 244°
2026-05-04 09:58 50.52263 4.66858 3160 ft 202 kts 244°
2026-05-04 10:00 50.48900 4.55231 1670 ft 137 kts 243°
2026-05-04 10:00 50.48470 4.53900 1608 ft 137 kts 241°
2026-05-04 10:02 50.46002 4.45336 628 ft 25 kts 245°
2026-05-04 10:04 50.46006 4.44789 626 ft 8 kts 28°
2026-05-04 10:04 50.46044 4.44865 628 ft 10 kts 64°
2026-05-04 10:04 50.46074 4.44973 631 ft 12 kts 65°
2026-05-04 10:04 50.46113 4.45103 624 ft 14 kts 65°
2026-05-04 10:05 50.46154 4.45252 631 ft 16 kts 65°
2026-05-04 10:05 50.46202 4.45415 631 ft 17 kts 65°
2026-05-04 10:05 50.46255 4.45592 624 ft 19 kts 65°
2026-05-04 10:05 50.46310 4.45781 629 ft 19 kts 65°
2026-05-04 10:06 50.46363 4.45966 622 ft 18 kts 66°
2026-05-04 10:06 50.46415 4.46145 620 ft 18 kts 65°
2026-05-04 10:06 50.46465 4.46318 626 ft 17 kts 66°
2026-05-04 10:08 50.46650 4.46792 612 ft 4 kts 339°
2026-05-04 10:08 50.46679 4.46811 619 ft 6 kts 51°
2026-05-04 10:08 50.46704 4.46888 616 ft 9 kts 64°
2026-05-04 10:08 50.46731 4.46979 620 ft 9 kts 65°
2026-05-04 10:09 50.46758 4.47068 621 ft 9 kts 65°
2026-05-04 10:09 50.46774 4.47125 622 ft 4 kts 66°
2026-05-04 10:09 50.46796 4.47147 619 ft 4 kts 360°
2026-05-04 10:09 50.46821 4.47135 609 ft 2 kts 336°
2026-05-04 10:10 50.46825 4.47132 609 ft 1 kts 335°
2026-05-04 10:10 50.46837 4.47123 609 ft 3 kts 334°
2026-05-04 10:10 50.46853 4.47112 609 ft 2 kts 335°
2026-05-04 10:10 50.46863 4.47105 609 ft 1 kts 336°
2026-05-04 10:11 50.46869 4.47100 626 ft 1 kts 335°
2026-05-04 10:11 50.46872 4.47098 609 ft 0 kts 335°